Flag for U.S.A. Weather past 2 weeks in Garland, Texas, U.S.A.

Now
81 °F

Sunny.


Feels Like: 80 °F
Forecast: 55 / 80 °F
Wind: 9 mph from Southeast

Location: Mesquite Metro Airport

Current Time: Mar 28, 2015 at 8:19:26 PM

Latest Report: Mar 28, 2015 at 5:50 PM


Visibility: 10 mi

Pressure: 29.97 "Hg

Humidity: 30%

Dew point: 46 °F

Location of GarlandLocation

Historic Weather in Garland — Graph

°F

Garland temperature yesterday

Maximum temperature yesterday: 66 °F (at 1:50 PM)
Minimum temperature yesterday: 41 °F (at 7:50 AM)
Average temperature yesterday: 53 °F

Past Weeks' High & Low Weather Summary

 TemperatureHumidityPressure
High81 °F (Mar 24, 4:50 PM)100% (Mar 16, 6:50 AM)30.32 "Hg (Mar 16, 6:50 AM)
Low41 °F (Mar 27, 7:50 AM)28% (Mar 28, 3:50 PM)29.77 "Hg (Mar 25, 11:55 PM)
Average60 °F81%30.06 "Hg
* Reported Mar 13 5:47 PM — Mar 28 5:50 PM, Garland, Weather by CustomWeather, © 2015

Note: Actual official high and low records may vary slightly from our data, if they occured in-between our weather recording intervals... More about our weather records

Advertising

Garland weather history for previous 24 hours

 ConditionsComfort  
Time TempWeatherWind HumidityBarometerVisibility
5:50 PM
Sat, Mar 28
81 °FSunny.9 mph30%29.97 "Hg10 mi
4:50 PM81 °FSunny.15 mph30%29.98 "Hg10 mi
3:50 PM81 °FSunny.12 mph28%29.99 "Hg10 mi
2:50 PM77 °FSunny.9 mph36%30.01 "Hg10 mi
1:50 PM73 °FSunny.7 mph36%30.04 "Hg10 mi
12:50 PM70 °FSunny.6 mph43%30.08 "Hg10 mi
11:50 AM66 °FSunny.15 mph43%30.09 "Hg10 mi
10:59 AM63 °FSunny.13 mph52%30.10 "Hg10 mi
9:47 AM55 °FSunny.15 mph59%30.12 "Hg10 mi
8:47 AM48 °FSunny.7 mph82%30.12 "Hg10 mi
7:47 AM43 °FClear.6 mph87%30.11 "Hg10 mi
6:47 AM43 °FClear.6 mph87%30.10 "Hg10 mi
6:15 AM43 °FClear.No wind87%30.10 "Hg10 mi
5:55 AM44 °FClear.3 mph84%30.10 "Hg10 mi
5:35 AM44 °FClear.No wind89%30.10 "Hg10 mi
5:15 AM43 °FClear.3 mph88%30.10 "Hg10 mi
4:55 AM44 °FClear.No wind87%30.11 "Hg10 mi
4:35 AM44 °FClear.3 mph91%30.11 "Hg10 mi
4:15 AM45 °FClear.6 mph82%30.12 "Hg10 mi
3:55 AM46 °FClear.No wind78%30.13 "Hg10 mi
3:35 AM46 °FClear.No wind78%30.13 "Hg10 mi
3:15 AM46 °FClear.3 mph80%30.13 "Hg10 mi
2:55 AM46 °FClear.5 mph78%30.14 "Hg10 mi
2:15 AM47 °FClear.5 mph75%30.17 "Hg10 mi
1:55 AM47 °FClear.3 mph77%30.16 "Hg10 mi
1:35 AM47 °FClear.5 mph77%30.17 "Hg10 mi
1:15 AM49 °FClear.6 mph71%30.18 "Hg10 mi
12:55 AM50 °FClear.3 mph66%30.19 "Hg10 mi
12:35 AM51 °FClear.3 mph63%30.19 "Hg10 mi
12:15 AM50 °FClear.3 mph64%30.18 "Hg10 mi
11:55 PM
Fri, Mar 27
51 °FClear.No wind62%30.19 "Hg10 mi
11:35 PM52 °FClear.3 mph60%30.19 "Hg10 mi
10:35 PM52 °FClear.3 mph62%30.18 "Hg10 mi
10:15 PM53 °FClear.3 mph59%30.17 "Hg10 mi
9:55 PM54 °FClear.3 mph59%30.17 "Hg10 mi
9:35 PM54 °FClear.5 mph57%30.17 "Hg10 mi
9:15 PM55 °FClear.No wind58%30.16 "Hg10 mi
8:55 PM56 °FClear.3 mph55%30.16 "Hg10 mi
8:35 PM57 °FSunny.3 mph54%30.15 "Hg10 mi
8:15 PM58 °FSunny.6 mph52%30.15 "Hg10 mi
Weather by CustomWeather, © 2015

See weather overviewHow to use our weather pages